Погода в Коврове

Россия / Владимирская область     56°21′49″N   41°18′40″E
темп.,
°C
ветер,
м/с
пор.,
м/с
влажн.,
%
обл.,
%
осадки,
мм/ч
давл.,
гПа
погр.,
м
5 августа, чт
чт500:00+14зсз116317 0.0 101713
03:00+14всв116098 0.0 101713
06:00+16юв1261100 0.0 101854
09:00+18вюв235112 0.0 1018375
12:00+24ююв233871 0.0 10172183
15:00+23юв2245100 0.0 1016810
18:00+22вюв2451100 0.0 1016198
21:00+18юв4868100 0.3 1016246
6 августа, пт
пт600:00+14св369791 2.3 1016177
03:00+14в4109059 3.0 1015228
06:00+14вюв41086100 0.1 1015282
09:00+17юв2682100 0.2 1014234
12:00+17св1188100 0.9 101554
15:00+20в4679100 1.1 1014365
18:00+17юв2698100 3.9 1014245
21:00+16в3797100 5.1 1014192
7 августа, сб
сб700:00+16в5139390 0.2 1013410
03:00+16в41096100 0.5 1012316
06:00+16в399673 0.3 1012263
09:00+20юв358246 2.5 1012469
12:00+21ююв367961 1.1 1012423
15:00+30ююв263581 1.1 10111972
18:00+26ююв4847100 0.0 1011334
21:00+21вюв136398 0.0 101268
8 августа, вс
вс800:00+22ююв31356100 0.0 1012369
03:00+21ююв41455100 0.0 1013416
06:00+20ююв31159100 0.0 1013308
09:00+24ю4646100 0.0 1014481
12:00+27з1143100 0.0 1014892
15:00+24с2462100 0.0 1014208
18:00+24сз1161100 0.0 101419
21:00+19сз2285100 0.0 101616
9 августа, пн
пн900:00+17зюз229714 1.3 101742
03:00+17юз11952 1.3 101712
06:00+17з229113 0.0 101765
09:00+21з3468100 0.0 1017402
12:00+26зюз344514 0.0 10171526
15:00+28з35415 0.0 10172077
18:00+26зсз25505 0.0 1016321
21:00+20зюз11665 0.0 101711